Regional Weather Roundup
Issued by NWS

Home | Current Version | Previous Version | Graphics & Text | Print | Product List | Glossary On
Versions: 1 2 3 4 5 6 7 8 9 10 11 12 13 14 15 16 17 18 19 20 21 22 23 24 25 26 27 28 29 30 31 32 33 34 35 36 37 38 39 40 41 42 43 44 45 46 47 48 49 50
000
ASUS45 KTFX 020510
RWRMT
MONTANA REGIONAL WEATHER ROUNDUP
NATIONAL WEATHER SERVICE GREAT FALLS MT
1100 PM MDT SAT AUG 01 2015

NOTE: "FAIR" INDICATES FEW OR NO CLOUDS BELOW 12000 FEET WITH NO
SIGNIFICANT WEATHER AND/OR OBSTRUCTIONS TO VISIBILITY.

MTZ001>007-043-020600-
WEST OF THE DIVIDE

CITY           SKY/WX    TMP DP  RH WIND       PRES   REMARKS
KALISPELL      CLEAR     64  34  32 S3        29.92R
MISSOULA       CLEAR     73  37  27 CALM      29.97R
BUTTE          CLEAR     61  36  39 SE7       30.14R
MULLAN PASS    MOCLDY    71  17  12 W5        30.17S
DEER LODGE       N/A     72  32  23 W7        30.10R
EUREKA           N/A     70  30  23 CALM      29.91R
HAMILTON         N/A     70  37  30 S10       29.99R
LIBBY            N/A     72  30  21 S3        29.91R
PLAINS           N/A     67  35  30 NE1       29.94R
RONAN            N/A     73  37  26 CALM      30.00R
THOMPSON FALLS   N/A     69  33  26 CALM      29.97R
$$

MTZ008-052>055-020600-
SOUTHWEST MONTANA

CITY           SKY/WX    TMP DP  RH WIND       PRES   REMARKS
BOZEMAN        CLEAR     61  49  64 SE7       30.03R
DILLON         CLEAR     64  38  38 SE7       30.09R
W YELLOWSTONE  CLEAR     57  43  58 CALM      30.22S
THREE FORKS      N/A     64  64 100 CALM      30.01R
TWIN BRIDGES     N/A     66  41  40 E2        30.06R
$$

MTZ009-010-012-014-046-048-049-054-020600-
EAST SLOPES AND CENTRAL MONTANA

CITY           SKY/WX    TMP DP  RH WIND       PRES   REMARKS
CUT BANK       PTCLDY    64  38  38 N13       29.96R
GREAT FALLS    CLEAR     66  37  34 S7        29.92S
MALMSTROM AFB  CLEAR     78  26  15 S5        29.91S
HELENA         CLEAR     82  30  15 SW14      29.98R
CONRAD           N/A     61  42  49 NW2       29.98R
$$

MTZ011-013-016-021-045-047-050-051-020600-
NORTH CENTRAL MONTANA

CITY           SKY/WX    TMP DP  RH WIND       PRES   REMARKS
HAVRE          CLEAR     72  54  53 E15       29.89R
LEWISTOWN      CLEAR     63  42  46 SE9       29.98R
CHINOOK          N/A     72  57  60 E6        29.92R
FORT BENTON      N/A     72  36  26 CALM      29.89R
$$

MTZ017>020-022>027-061-062-020600-
NORTHEAST MONTANA

CITY           SKY/WX    TMP DP  RH WIND       PRES   REMARKS
GLASGOW        CLEAR     70  54  56 NE15      29.89R
JORDAN           N/A     73  47  39 NE9       29.89R
SIDNEY         CLEAR    N/A N/A N/A N9        29.85R
WOLF POINT     CLEAR     71  55  56 NE18      29.88R
MALTA            N/A     72  55  54 NE8       29.87R
PLENTYWOOD       N/A     64  54  68 NW6       29.91R
POPLAR           N/A     70  54  56 N8        29.89S
SCOBEY           N/A     59  51  74 N1        29.93R
$$

MTZ028>42-056>058-020600-
SOUTHCENTRAL AND SOUTHEAST MONTANA

CITY           SKY/WX    TMP DP  RH WIND       PRES   REMARKS
BAKER          CLEAR     64  37  36 CALM      29.89R
BILLINGS       PTCLDY    80  29  15 N6        29.94R
LIVINGSTON     PTCLDY    67  37  33 W8        30.03R
MILES CITY     CLEAR     77  36  22 NE6       29.86R
EKALAKA          N/A     76  28  17 E3        29.92S
FORSYTH          N/A     75  30  19 SE3       29.86F
LAUREL           N/A     78  35  21 W2        29.95
ROUNDUP          N/A     79  30  16 CALM      29.86S
$$

REGIONAL REPORTS...DAKOTAS

CITY           SKY/WX    TMP DP  RH WIND       PRES   REMARKS
WILLISTON      CLEAR     71  54  54 N15       29.85R
MINOT          CLEAR     68  54  60 NW20      29.74R
DICKINSON      CLEAR     65  42  43 W6        29.83R
BEACH          FAIR      57  46  67 NW6       29.88S
CROSBY         FAIR      57  57 100 NW8       29.87S
BISMARCK       CLEAR     72  60  66 W6        29.75R
GRAND FORKS    PTCLDY    69  61  75 S6        29.63F
FARGO          CLEAR     73  66  78 SE7       29.65F
BUFFALO SD       N/A     71  37  28 SE6       29.83R
RAPID CITY     CLEAR     73  60  63 SW8       29.93S
$$

REGIONAL REPORTS...WYOMING/IDAHO/WASHINGTON

CITY           SKY/WX    TMP DP  RH WIND       PRES   REMARKS
GILLETTE       CLEAR     60  34  37 S5        30.00F
SHERIDAN       CLEAR     68  36  30 S3        29.98S
BUFFALO WY     CLEAR     71  28  20 W8        30.07F
CODY           CLEAR     70  34  26 S6        30.09S
YELLOWSTONE LA   N/A     50  35  56 NW3       30.34S
IDAHO FALLS    PTCLDY    63  48  58 CALM      30.06S
SALMON         CLEAR     72  39  30 CALM      29.99R
BOISE          CLEAR     82  35  18 S3        29.88R
SPOKANE        CLOUDY    80  20  10 SW7       29.89R SMOKE
$$

REGIONAL REPORTS...ALBERTA

CITY           SKY/WX    TMP DP  RH WIND       PRES   REMARKS
EDMONTON       CLEAR     57  50  77 NE2       30.01R
CALGARY        MOCLDY    64  55  72 NE6       30.09R
LETHBRIDGE     CLEAR     68  50  52 NE12G31   29.98R
MEDICINE HAT   CLEAR     70  50  49 E13       29.96R
CARDSTON         N/A     64  52  63 W7          N/A
ONEFOUR          N/A     68  54  60 E14         N/A
$$

REGIONAL REPORTS...SASKATCHEWAN

CITY           SKY/WX    TMP DP  RH WIND       PRES   REMARKS
SWIFT CURRENT  CLEAR     63  52  67 NE5       29.98R
REGINA         CLEAR     59  55  88 NW12      29.89R
SASKATOON      PTCLDY    55  54  94 NW7       29.94R
CYPRESS HILLS    N/A     59  46  63 E8          N/A
VAL MARIE        N/A     59  54  82 E6          N/A
ROCKGLEN         N/A     59  54  82 N1          N/A
ASSINIBOIA       N/A     55  54  94 W3          N/A
$$



USA.gov is the U.S. government's official web portal to all federal, state and local government web resources and services.